Simultaneous Nadir Overpasses (SNOs) Predictions

Prediction of SNOs between GOES-16 and TERRA Satellite Orbit:

Table of predicted SNOs for the next 14.0 days since TLE Epoch: 5/12/2018
Index Date Time (GOES-16) GOES-16 Lat,Lon TERRA Lat,Lon Distance(km) Time Diff (sec)
1 05/12/2018 15:31:16 -0.01, -75.21 0.05, -75.47 30.41 80
2 05/14/2018 15:21:46 -0.01, -75.21 -0.57, -72.52 305.85 80
3 05/15/2018 03:43:11 0.01, -75.20 -0.51, -77.72 286.25 80
4 05/17/2018 03:28:21 0.00, -75.20 0.11, -74.77 50.24 80
5 05/19/2018 03:16:11 -0.01, -75.21 0.74, -71.82 386.88 80
6 05/19/2018 15:37:27 0.01, -75.23 0.35, -76.98 197.57 80
7 05/21/2018 15:27:57 0.01, -75.25 -0.28, -74.03 139.80 80
8 05/22/2018 03:49:21 -0.01, -75.24 -0.86, -79.21 451.74 80
9 05/23/2018 15:15:47 0.01, -75.27 -0.91, -71.08 477.88 80
10 05/24/2018 03:37:11 -0.01, -75.26 -0.22, -76.26 113.43 80




NCC Satellite Simultaneous Nadir Overpasses (SNOs) Prediction Service
